Wind_Speed
25 24 23 23 23 22 22 20 17 16 17 18 22 26 26 27 29 31 28 27 28 28 30 31 29 26 26 29 29 30 30 30 30
32 31 30 26 25 25 22 19 17 13 11 14 14 18 25 27 29 29 28 27 28 30 32 23 20 28 31 31 30 29 26 25 24
40 34 33 33 30 26 24 19 17 15 11 5 11 15 17 20 21 24 25 25 27 28 28 21 26 28 30 29 25 24 24 21 20
45 40 36 39 37 31 25 24 20 18 17 11 9 13 16 16 20 22 22 22 25 23 17 31 26 25 26 23 20 19 19 16 15
51 44 41 39 40 37 31 29 28 24 19 17 16 16 17 17 17 19 21 22 21 21 21 23 22 22 21 22 20 17 15 10 10
53 46 43 40 43 41 42 38 36 32 27 25 24 23 23 19 19 21 21 21 20 19 18 20 20 20 20 19 18 15 13 12 8
58 52 36 34 35 50 47 45 43 41 36 32 31 32 31 28 26 25 26 25 29 23 21 20 21 21 19 20 19 18 15 14 15
63 56 50 51 51 50 48 52 47 44 40 34 40 39 37 34 34 32 31 29 26 31 27 27 26 24 25 25 23 23 21 20 21
69 64 52 54 53 49 47 61 52 49 45 43 42 40 40 39 37 36 33 28 23 23 23 27 29 29 26 26 25 25 25 26 26
79 72 68 66 57 59 47 45 55 50 49 47 47 45 42 41 39 38 35 31 26 24 24 26 26 25 27 30 32 32 28 26 26
84 83 80 81 79 75 68 62 52 54 48 50 51 52 50 45 44 41 39 35 32 30 30 28 29 29 29 29 30 30 28 29 28
93 89 85 84 84 83 79 78 68 64 61 48 57 57 56 53 51 46 44 44 43 40 38 37 37 37 35 34 34 35 35 35 33
98 97 89 89 90 86 87 85 76 72 70 67 57 62 61 56 54 52 51 51 50 47 46 45 44 44 43 43 43 42 42 43 43
102 102 101 94 94 94 90 88 85 81 77 76 70 63 63 62 62 58 59 58 55 53 51 51 52 53 52 51 48 49 51 52 53
101 111 106 104 95 97 95 93 89 87 85 84 80 74 69 69 69 69 65 64 62 61 60 60 58 58 59 58 58 59 60 60 61
113 107 114 110 107 99 96 97 97 93 88 89 85 84 81 77 76 75 73 72 70 69 68 66 66 67 67 68 68 68 68 67 67
101 117 116 114 113 113 109 104 103 100 97 93 93 91 88 85 84 84 83 81 78 75 76 74 73 73 73 72 72 74 75 77 77
121 112 120 121 120 117 114 113 110 107 104 103 99 95 95 94 91 89 89 87 85 84 83 82 81 79 79 80 81 81 82 83 84
119 122 116 123 125 116 118 116 112 111 110 110 106 103 100 99 99 96 95 95 94 93 90 89 88 88 88 90 89 89 89 91 91
110 114 120 122 121 122 115 113 114 115 114 110 104 108 104 106 106 104 102 102 100 99 97 97 95 93 93 96 97 97 99 97 96
Wind_Direction
209 212 206 180 168 154 136 128 124 116 107 104 102 109 115 114 119 124 123 124 125 120 122 119 118 118 120 120 115 117 120 121 123
209 210 212 203 182 166 157 150 148 140 126 113 113 113 117 118 121 121 125 129 126 122 119 105 114 132 133 127 121 122 119 121 122
209 209 212 211 202 187 176 173 169 171 169 165 145 141 135 129 129 122 121 129 130 131 129 132 150 149 142 135 135 133 129 127 127
209 202 213 214 211 203 201 194 190 193 198 210 209 174 162 158 150 150 142 142 146 154 159 148 145 158 166 156 151 147 146 139 140
208 210 213 215 211 218 214 209 206 205 214 220 221 212 201 188 183 176 168 163 165 162 153 156 163 165 169 172 175 177 164 163 178
203 204 213 218 217 226 223 218 215 214 224 233 224 215 212 211 201 198 199 196 186 190 190 184 185 183 183 188 191 193 201 204 212
207 209 204 227 226 226 229 229 220 217 226 234 236 221 218 218 219 216 209 206 204 208 213 213 216 217 213 212 216 223 231 237 241
207 208 200 214 202 224 234 232 227 227 227 220 238 228 223 222 224 227 223 220 221 220 224 226 223 224 229 227 226 231 239 246 250
207 208 197 197 211 222 234 235 227 227 225 226 230 230 227 227 225 228 227 227 223 222 224 231 236 234 232 235 234 236 243 252 258
211 207 201 203 209 213 222 211 213 223 223 224 230 233 228 231 225 224 226 228 229 231 234 240 236 238 236 236 241 248 249 253 256
214 212 212 213 218 218 223 227 220 222 225 226 230 231 231 229 227 227 230 232 237 237 236 239 237 238 238 240 243 245 245 250 256
213 214 217 220 223 225 224 230 228 227 227 225 233 233 233 228 228 230 233 237 240 242 241 239 239 242 243 246 247 252 256 259 261
216 215 215 220 223 226 228 228 225 227 227 226 227 233 234 233 230 232 236 240 243 244 244 244 246 248 251 250 252 254 254 259 259
218 218 218 218 224 224 229 232 228 227 227 230 232 232 233 232 233 235 240 242 243 246 248 250 251 252 255 256 256 258 262 264 267
219 218 219 218 220 226 229 232 232 231 231 232 233 234 234 236 237 237 239 242 246 249 251 252 255 259 262 262 261 262 265 266 268
222 220 219 220 222 219 225 231 235 233 233 235 235 236 235 236 238 240 242 244 246 248 251 253 256 259 262 264 265 266 268 269 270
224 225 224 222 222 226 226 228 232 234 236 235 236 238 239 239 241 244 244 244 247 249 250 254 259 262 263 265 267 268 269 270 272
225 225 226 225 227 226 228 229 232 234 235 238 238 241 241 242 243 244 247 250 252 252 253 256 258 261 264 267 269 272 273 274 274
231 227 227 228 229 230 230 231 233 234 235 238 239 243 243 242 243 245 247 250 252 253 254 256 258 261 263 266 267 269 272 273 273
232 230 228 228 231 233 232 233 238 238 236 237 241 244 244 244 245 247 250 252 254 255 256 259 260 262 264 267 269 270 271 273 275
Height
10976 10981 10985 10986 10988 10989 10989 10990 10992 10994 10994 10995 10996 10995 10996 10997 10999 11002 11003 11006 11008 11008 11011 11013 11013 11015 11017 11018 11022 11023 11025 11029 11032
10972 10977 10982 10986 10987 10989 10990 10992 10994 10997 10999 11000 11001 11002 11002 11003 11005 11007 11009 11010 11011 11014 11018 11019 11030 11025 11026 11026 11030 11033 11035 11036 11035
10965 10970 10978 10984 10986 10988 10990 10992 10994 10997 11000 11002 11003 11004 11006 11007 11009 11011 11012 11012 11014 11017 11019 11021 11036 11032 11033 11032 11036 11037 11036 11036 11036
10957 10966 10968 10977 10982 10985 10988 10991 10994 10997 10999 11002 11004 11006 11007 11009 11011 11012 11013 11014 11015 11018 11018 11021 11024 11029 11031 11031 11034 11037 11036 11037 11038
10949 10955 10964 10970 10978 10982 10985 10988 10991 10994 10999 11000 11002 11005 11007 11008 11010 11012 11013 11013 11014 11016 11017 11019 11023 11026 11027 11027 11030 11032 11033 11033 11034
10940 10948 10956 10964 10969 10973 10976 10980 10985 10989 10993 10998 11000 11002 11005 11007 11008 11009 11012 11013 11014 11012 11015 11018 11020 11021 11022 11025 11028 11029 11030 11030 11031
10933 10940 10950 10958 10962 10965 10968 10973 10977 10980 10987 10992 10996 10998 11000 11003 11005 11006 11008 11011 11014 11014 11014 11016 11019 11021 11024 11025 11026 11026 11027 11028 11028
10925 10932 10942 10950 10954 10955 10959 10963 10970 10976 10979 10987 10990 10993 10995 10997 11000 11002 11004 11006 11008 11012 11015 11017 11018 11020 11021 11021 11022 11022 11023 11024 11024
10915 10923 10931 10937 10940 10942 10947 10950 10960 10965 10970 10975 10980 10986 10990 10992 10993 10995 10998 11001 11002 11004 11008 11011 11014 11016 11016 11018 11018 11016 11018 11019 11020
10904 10913 10919 10923 10927 10929 10936 10937 10947 10954 10961 10967 10973 10978 10983 10987 10987 10989 10992 10994 10997 11000 11002 11004 11006 11007 11009 11011 11012 11012 11012 11013 11014
10890 10899 10905 10910 10911 10917 10922 10930 10939 10945 10953 10958 10964 10971 10975 10978 10980 10982 10985 10987 10989 10992 10994 10996 10998 10999 11001 11002 11003 11005 11005 11006 11007
10869 10881 10888 10895 10899 10906 10913 10917 10927 10936 10943 10949 10952 10957 10962 10968 10971 10973 10975 10976 10978 10982 10985 10987 10989 10991 10992 10994 10995 10997 10998 10998 10998
10855 10864 10873 10878 10884 10892 10898 10907 10916 10926 10932 10937 10940 10945 10950 10955 10959 10962 10963 10964 10967 10970 10974 10977 10979 10981 10983 10985 10986 10986 10987 10988 10988
10838 10847 10855 10863 10871 10880 10886 10895 10905 10912 10919 10924 10927 10932 10937 10942 10945 10948 10950 10952 10954 10959 10963 10965 10967 10969 10972 10974 10975 10974 10975 10976 10976
10813 10828 10836 10846 10857 10866 10873 10881 10888 10897 10900 10904 10914 10918 10924 10926 10930 10933 10936 10939 10942 10945 10948 10950 10953 10955 10957 10960 10962 10962 10962 10961 10962
10787 10802 10816 10827 10837 10846 10854 10863 10870 10880 10886 10890 10896 10899 10907 10910 10914 10918 10921 10925 10928 10931 10933 10936 10939 10941 10943 10943 10944 10945 10945 10946 10946
10759 10778 10792 10804 10814 10823 10834 10843 10850 10860 10866 10872 10878 10885 10892 10895 10899 10902 10906 10909 10912 10916 10919 10921 10923 10926 10927 10928 10928 10928 10929 10928 10928
10740 10750 10763 10778 10789 10800 10811 10821 10830 10837 10847 10852 10860 10866 10875 10878 10880 10884 10888 10891 10895 10898 10901 10903 10905 10908 10908 10910 10909 10910 10910 10910 10909
10718 10732 10744 10754 10765 10778 10790 10799 10808 10817 10827 10833 10841 10847 10852 10858 10862 10865 10869 10872 10875 10879 10881 10883 10885 10887 10888 10888 10890 10891 10890 10890 10889
10693 10704 10721 10734 10743 10753 10769 10779 10785 10793 10804 10813 10820 10826 10833 10837 10841 10844 10850 10853 10856 10858 10860 10860 10863 10865 10867 10866 10866 10867 10867 10867 10867